IK1PCD-5 Weather Reports


time (UTC)temp
C
wind
direction
speed
KPH
gust
KPH
rain 1hr
cm
rain 24hr
cm
rain mn
cm
humidity
%
barometer
mb
20260507003038 -17 0.0 0.0 0.00 0.00 0.00 10 1010.8
20260507002538 -17 0.0 0.0 0.00 0.00 0.00 10 1010.8
20260507000538 -17 0.0 0.0 0.00 0.00 0.00 10 1010.8
20260507000037 -17 0.0 0.0 0.00 0.00 0.00 10 1010.7
20260506235538 -17 0.0 0.0 0.00 0.00 0.00 10 1010.7
20260506235038 -17 0.0 0.0 0.00 0.00 0.00 10 1010.8
20260506234533 -17 0.0 0.0 0.00 0.00 0.00 10 1011.0
20260506234028 -17 0.0 0.0 0.00 0.00 0.00 10 1011.0
20260506233538 -17 0.0 0.0 0.00 0.00 0.00 10 1011.1
20260506233037 -17 0.0 0.0 0.00 0.00 0.00 10 1011.1
20260506232538 -17 0.0 0.0 0.00 0.00 0.00 10 1011.0
20260506232038 -17 0.0 0.0 0.00 0.00 0.00 10 1011.0
20260506231533 -17 0.0 0.0 0.00 0.00 0.00 10 1011.1
20260506231028 -17 0.0 0.0 0.00 0.00 0.00 10 1011.1
20260506230538 -17 0.0 0.0 0.00 0.00 0.00 10 1011.1
20260506230038 -17 0.0 0.0 0.00 0.00 0.00 10 1011.1
20260506225538 -17 0.0 0.0 0.00 0.00 0.00 10 1011.0
20260506225038 -17 0.0 0.0 0.00 0.00 0.00 10 1011.0
20260506224533 -17 0.0 0.0 0.00 0.00 0.00 10 1010.8
20260506224028 -17 0.0 0.0 0.00 0.00 0.00 10 1011.1
20260506223538 -17 0.0 0.0 0.00 0.00 0.00 10 1011.1
20260506223037 -17 0.0 0.0 0.00 0.00 0.00 10 1011.0
20260506222538 -17 0.0 0.0 0.00 0.00 0.00 10 1011.0
20260506222038 -17 0.0 0.0 0.00 0.00 0.00 10 1011.0
20260506221533 -17 0.0 0.0 0.00 0.00 0.00 10 1010.8
20260506221028 -17 0.0 0.0 0.00 0.00 0.00 10 1010.8
20260506220537 -17 0.0 0.0 0.00 0.00 0.00 10 1011.0
20260506220038 -17 0.0 0.0 0.00 0.00 0.00 10 1011.0
20260506215538 -17 0.0 0.0 0.00 0.00 0.00 10 1011.1
20260506215038 -17 0.0 0.0 0.00 0.00 0.00 10 1011.0
20260506214533 -17 0.0 0.0 0.00 0.00 0.00 10 1011.1
20260506214028 -17 0.0 0.0 0.00 0.00 0.00 10 1011.1
20260506213538 -17 0.0 0.0 0.00 0.00 0.00 10 1011.1
20260506213038 -17 0.0 0.0 0.00 0.00 0.00 10 1011.2
20260506212538 -17 0.0 0.0 0.00 0.00 0.00 10 1011.1
20260506212038 -17 0.0 0.0 0.00 0.00 0.00 10 1011.0
20260506211533 -17 0.0 0.0 0.00 0.00 0.00 95 1011.1
20260506211028 -17 0.0 0.0 0.00 0.00 0.00 10 1011.1
20260506210538 -17 0.0 0.0 0.00 0.00 0.00 10 1011.1
20260506210038 -17 0.0 0.0 0.00 0.00 0.00 10 1011.2
20260506205538 -17 0.0 0.0 0.00 0.00 0.00 10 1011.1
20260506205038 -17 0.0 0.0 0.00 0.00 0.00 10 1011.1
20260506204533 -17 0.0 0.0 0.00 0.00 0.00 10 1011.0
20260506204028 -17 0.0 0.0 0.00 0.00 0.00 10 1011.1
20260506203538 -17 0.0 0.0 0.00 0.00 0.00 10 1011.1
20260506203038 -17 0.0 0.0 0.00 0.00 0.00 10 1011.1
20260506202538 -17 0.0 0.0 0.00 0.00 0.00 10 1011.1
20260506200538 -17 0.0 0.0 0.00 0.00 0.00 10 1011.0
20260506200038 -17 0.0 0.0 0.00 0.00 0.00 10 1010.8
20260506195538 -17 0.0 0.0 0.00 0.00 0.00 97 1010.7
20260506195038 -17 0.0 0.0 0.00 0.00 0.00 97 1010.6
20260506194533 -17 0.0 0.0 0.00 0.00 0.00 10 1010.5
20260506194029 -17 0.0 0.0 0.00 0.00 0.00 10 1010.5
20260506193538 -17 0.0 0.0 0.00 0.00 0.00 10 1010.6
20260506193038 -17 0.0 0.0 0.00 0.00 0.00 10 1010.6
20260506192538 -17 0.0 0.0 0.00 0.00 0.00 10 1010.7
20260506192038 -17 0.0 0.0 0.00 0.00 0.00 10 1010.5
20260506191534 -17 0.0 0.0 0.00 0.00 0.00 10 1010.5
20260506191028 -17 0.0 0.0 0.00 0.00 0.00 10 1010.3
20260506190538 -17 0.0 0.0 0.00 0.00 0.00 10 1010.2
20260506190038 -17 0.0 0.0 0.00 0.00 0.00 10 1010.2
20260506185538 -17 0.0 0.0 0.00 0.00 0.00 10 1010.1
20260506185038 -17 0.0 0.0 0.00 0.00 0.00 10 1010.0
20260506184533 -17 0.0 0.0 0.00 0.00 0.00 10 1010.1
20260506184028 -17 0.0 0.0 0.00 0.00 0.00 10 1010.0
20260506183538 -17 0.0 0.0 0.00 0.00 0.00 10 1009.8
20260506183038 -17 0.0 0.0 0.00 0.00 0.00 10 1009.7
20260506182538 -17 0.0 0.0 0.00 0.00 0.00 10 1009.7
20260506182038 -17 0.0 0.0 0.00 0.00 0.00 10 1009.7
20260506181533 -17 0.0 0.0 0.00 0.00 0.00 10 1009.6
20260506181028 -17 0.0 0.0 0.00 0.00 0.00 97 1009.6
20260506180538 -17 0.0 0.0 0.00 0.00 0.00 95 1009.5
20260506180037 -17 0.0 0.0 0.00 0.00 0.00 98 1009.3
20260506175538 -17 0.0 0.0 0.00 0.00 0.00 95 1009.3
20260506175038 -17 0.0 0.0 0.00 0.00 0.00 93 1009.2
20260506174533 -17 0.0 0.0 0.00 0.00 0.00 87 1009.2
20260506174028 -17 0.0 0.0 0.00 0.00 0.00 89 1009.2
20260506173538 -17 0.0 0.0 0.00 0.00 0.00 88 1009.1
20260506173038 -17 0.0 0.0 0.00 0.00 0.00 93 1009.1
20260506172538 -17 0.0 0.0 0.00 0.00 0.00 91 1009.1
20260506172038 -17 0.0 0.0 0.00 0.00 0.00 90 1009.1
20260506171533 -17 0.0 0.0 0.00 0.00 0.00 92 1009.0
20260506171028 -17 0.0 0.0 0.00 0.00 0.00 88 1008.8
20260506170538 -17 0.0 0.0 0.00 0.00 0.00 93 1008.8
20260506170038 -17 0.0 0.0 0.00 0.00 0.00 87 1008.7
20260506165538 -17 0.0 0.0 0.00 0.00 0.00 89 1008.7
20260506165038 -17 0.0 0.0 0.00 0.00 0.00 84 1008.7
20260506164533 -17 0.0 0.0 0.00 0.00 0.00 89 1008.7
20260506164028 -17 0.0 0.0 0.00 0.00 0.00 85 1008.7
20260506163538 -17 0.0 0.0 0.00 0.00 0.00 89 1008.8
20260506163038 -17 0.0 0.0 0.00 0.00 0.00 86 1008.7
20260506162538 -17 0.0 0.0 0.00 0.00 0.00 86 1008.8
20260506160538 -17 0.0 0.0 0.00 0.00 0.00 78 1008.8
20260506160038 -17 0.0 0.0 0.00 0.00 0.00 82 1008.7
20260506155538 -17 0.0 0.0 0.00 0.00 0.00 80 1008.8
20260506155034 -17 0.0 0.0 0.00 0.00 0.00 77 1008.7
20260506154533 -17 0.0 0.0 0.00 0.00 0.00 80 1008.7
20260506154028 -17 0.0 0.0 0.00 0.00 0.00 84 1008.7
20260506153538 -17 0.0 0.0 0.00 0.00 0.00 81 1008.7
20260506153038 -17 0.0 0.0 0.00 0.00 0.00 87 1008.7
20260506152538 -17 0.0 0.0 0.00 0.00 0.00 82 1008.7
20260506152039 -17 0.0 0.0 0.00 0.00 0.00 84 1008.6
20260506151533 -17 0.0 0.0 0.00 0.00 0.00 83 1008.7
20260506151028 -17 0.0 0.0 0.00 0.00 0.00 82 1008.7
20260506150538 -17 0.0 0.0 0.00 0.00 0.00 79 1008.6
20260506150038 -17 0.0 0.0 0.00 0.00 0.00 81 1008.7
20260506145538 -17 0.0 0.0 0.00 0.00 0.00 83 1008.7
20260506145038 -17 0.0 0.0 0.00 0.00 0.00 79 1008.7
20260506144533 -17 0.0 0.0 0.00 0.00 0.00 76 1008.7
20260506144029 -17 0.0 0.0 0.00 0.00 0.00 80 1008.7
20260506143538 -17 0.0 0.0 0.00 0.00 0.00 81 1008.7
20260506143038 -17 0.0 0.0 0.00 0.00 0.00 82 1008.7
20260506142538 -17 0.0 0.0 0.00 0.00 0.00 85 1008.7
20260506142038 -17 0.0 0.0 0.00 0.00 0.00 86 1008.7
20260506141533 -17 0.0 0.0 0.00 0.00 0.00 84 1008.7
20260506141028 -17 0.0 0.0 0.00 0.00 0.00 84 1008.7
20260506140538 -17 0.0 0.0 0.00 0.00 0.00 87 1008.7
20260506140038 -17 0.0 0.0 0.00 0.00 0.00 90 1008.7
20260506135538 -17 0.0 0.0 0.00 0.00 0.00 83 1008.8
20260506135038 -17 0.0 0.0 0.00 0.00 0.00 80 1008.8
20260506134533 -17 0.0 0.0 0.00 0.00 0.00 89 1009.0
20260506134028 -17 0.0 0.0 0.00 0.00 0.00 88 1009.1
20260506133538 -17 0.0 0.0 0.00 0.00 0.00 92 1009.2
20260506133038 -17 0.0 0.0 0.00 0.00 0.00 91 1009.2
20260506132538 -17 0.0 0.0 0.00 0.00 0.00 94 1009.0
20260506132038 -17 0.0 0.0 0.00 0.00 0.00 98 1009.2
20260506131533 -17 0.0 0.0 0.00 0.00 0.00 99 1009.2
20260506131029 -17 0.0 0.0 0.00 0.00 0.00 98 1009.2
20260506130538 -17 0.0 0.0 0.00 0.00 0.00 96 1009.3
20260506130038 -17 0.0 0.0 0.00 0.00 0.00 10 1009.2
20260506125538 -17 0.0 0.0 0.00 0.00 0.00 96 1009.2
20260506125038 -17 0.0 0.0 0.00 0.00 0.00 10 1009.2
20260506124533 -17 0.0 0.0 0.00 0.00 0.00 10 1009.2
20260506124028 -17 0.0 0.0 0.00 0.00 0.00 10 1009.2
20260506123538 -17 0.0 0.0 0.00 0.00 0.00 10 1009.1
20260506123038 -17 0.0 0.0 0.00 0.00 0.00 10 1009.1
20260506122538 -17 0.0 0.0 0.00 0.00 0.00 10 1009.2
20260506120538 -17 0.0 0.0 0.00 0.00 0.00 10 1009.1
20260506120038 -17 0.0 0.0 0.00 0.00 0.00 10 1009.0
20260506115538 -17 0.0 0.0 0.00 0.00 0.00 10 1008.8
20260506115038 -17 0.0 0.0 0.00 0.00 0.00 10 1009.0
20260506114533 -17 0.0 0.0 0.00 0.00 0.00 10 1008.8
20260506114028 -17 0.0 0.0 0.00 0.00 0.00 10 1009.0
20260506113538 -17 0.0 0.0 0.00 0.00 0.00 10 1008.8
20260506113038 -17 0.0 0.0 0.00 0.00 0.00 10 1008.7
20260506112538 -17 0.0 0.0 0.00 0.00 0.00 10 1008.8
20260506112038 -17 0.0 0.0 0.00 0.00 0.00 10 1009.0
20260506111533 -17 0.0 0.0 0.00 0.00 0.00 10 1009.0
20260506111028 -17 0.0 0.0 0.00 0.00 0.00 10 1009.0
20260506110538 -17 0.0 0.0 0.00 0.00 0.00 10 1009.0
20260506110038 -17 0.0 0.0 0.00 0.00 0.00 10 1008.8
20260506105538 -17 0.0 0.0 0.00 0.00 0.00 10 1008.8
20260506105038 -17 0.0 0.0 0.00 0.00 0.00 10 1009.0
20260506104533 -17 0.0 0.0 0.00 0.00 0.00 10 1008.8
20260506104028 -17 0.0 0.0 0.00 0.00 0.00 10 1008.7
20260506103538 -17 0.0 0.0 0.00 0.00 0.00 10 1008.7
20260506103038 -17 0.0 0.0 0.00 0.00 0.00 10 1008.7
20260506102537 -17 0.0 0.0 0.00 0.00 0.00 10 1008.7
20260506102038 -17 0.0 0.0 0.00 0.00 0.00 10 1008.7
20260506101533 -17 0.0 0.0 0.00 0.00 0.00 10 1008.7
20260506101028 -17 0.0 0.0 0.00 0.00 0.00 10 1008.7
20260506100538 -17 0.0 0.0 0.00 0.00 0.00 10 1008.6
20260506100038 -17 0.0 0.0 0.00 0.00 0.00 10 1008.6
20260506095538 -17 0.0 0.0 0.00 0.00 0.00 10 1008.6
20260506095038 -17 0.0 0.0 0.00 0.00 0.00 10 1008.5
20260506094533 -17 0.0 0.0 0.00 0.00 0.00 10 1008.3
20260506094029 -17 0.0 0.0 0.00 0.00 0.00 10 1008.5
20260506093538 -17 0.0 0.0 0.00 0.00 0.00 10 1008.2
20260506093038 -17 0.0 0.0 0.00 0.00 0.00 10 1008.3
20260506092538 -17 0.0 0.0 0.00 0.00 0.00 10 1008.2
20260506092034 -17 0.0 0.0 0.00 0.00 0.00 10 1008.2
20260506091533 -17 0.0 0.0 0.00 0.00 0.00 10 1008.1
20260506091028 -17 0.0 0.0 0.00 0.00 0.00 10 1007.8
20260506090538 -17 0.0 0.0 0.00 0.00 0.00 10 1007.7
20260506090038 -17 0.0 0.0 0.00 0.00 0.00 10 1008.1
20260506085538 -17 0.0 0.0 0.00 0.00 0.00 10 1008.2
20260506085038 -17 0.0 0.0 0.00 0.00 0.00 10 1008.1
20260506084534 -17 0.0 0.0 0.00 0.00 0.00 10 1008.2
20260506084029 -17 0.0 0.0 0.00 0.00 0.00 10 1008.0
20260506083538 -17 0.0 0.0 0.00 0.00 0.00 10 1007.8
20260506083038 -17 0.0 0.0 0.00 0.00 0.00 10 1007.8
20260506082538 -17 0.0 0.0 0.00 0.00 0.00 10 1007.8
20260506080538 -17 0.0 0.0 0.00 0.00 0.00 10 1007.2
20260506073038 -17 0.0 0.0 0.00 0.00 0.00 10 1007.5
20260506072538 -17 0.0 0.0 0.00 0.00 0.00 10 1007.6
20260506072043 -17 0.0 0.0 0.00 0.00 0.00 10 1007.5
20260506071534 -17 0.0 0.0 0.00 0.00 0.00 10 1007.3
20260506071029 -17 0.0 0.0 0.00 0.00 0.00 10 1007.2
20260506070538 -17 0.0 0.0 0.00 0.00 0.00 10 1007.3
20260506062038 -17 0.0 0.0 0.00 0.00 0.00 10 1007.6
20260506061533 -17 0.0 0.0 0.00 0.00 0.00 10 1007.7
20260506061028 -17 0.0 0.0 0.00 0.00 0.00 10 1007.8
20260506060538 -17 0.0 0.0 0.00 0.00 0.00 10 1007.8
20260506051028 -17 0.0 0.0 0.00 0.00 0.00 10 1008.2
20260506050538 -17 0.0 0.0 0.00 0.00 0.00 10 1008.3
20260506045038 -17 0.0 0.0 0.00 0.00 0.00 10 1008.8
20260506044533 -17 0.0 0.0 0.00 0.00 0.00 10 1008.2
20260506044028 -17 0.0 0.0 0.00 0.00 0.00 10 1007.8
20260506043538 -17 0.0 0.0 0.00 0.00 0.00 10 1007.8
20260506043039 -17 0.0 0.0 0.00 0.00 0.00 10 1008.2
20260506042538 -17 0.0 0.0 0.00 0.00 0.00 10 1008.2
20260506040538 -17 0.0 0.0 0.00 0.00 0.00 10 1008.6
20260506040039 -17 0.0 0.0 0.00 0.00 0.00 10 1008.7
20260506035538 -17 0.0 0.0 0.00 0.00 0.00 10 1008.7
20260506035038 -17 0.0 0.0 0.00 0.00 0.00 10 1008.6
20260506034533 -17 0.0 0.0 0.00 0.00 0.00 10 1008.7
20260506034028 -17 0.0 0.0 0.00 0.00 0.00 10 1008.7
20260506033538 -17 0.0 0.0 0.00 0.00 0.00 10 1008.7
20260506033038 -17 0.0 0.0 0.00 0.00 0.00 10 1008.6
20260506032539 -17 0.0 0.0 0.00 0.00 0.00 10 1009.2
20260506032034 -17 0.0 0.0 0.00 0.00 0.00 10 1009.2
20260506031533 -17 0.0 0.0 0.00 0.00 0.00 10 1008.7
20260506031028 -17 0.0 0.0 0.00 0.00 0.00 10 1008.6
20260506030538 -17 0.0 0.0 0.00 0.00 0.00 10 1008.2
20260506030038 -17 0.0 0.0 0.00 0.00 0.00 10 1008.2
20260506025538 -17 0.0 0.0 0.00 0.00 0.00 10 1008.3
20260506025038 -17 0.0 0.0 0.00 0.00 0.00 10 1008.5
20260506024533 -17 0.0 0.0 0.00 0.00 0.00 10 1008.6
20260506024029 -17 0.0 0.0 0.00 0.00 0.00 10 1008.7
20260506023538 -17 0.0 0.0 0.00 0.00 0.00 10 1008.7
20260506023038 -17 0.0 0.0 0.00 0.00 0.00 10 1008.5
20260506022538 -17 0.0 0.0 0.00 0.00 0.00 10 1009.2
20260506022038 -17 0.0 0.0 0.00 0.00 0.00 10 1009.2
20260506021533 -17 0.0 0.0 0.00 0.00 0.00 10 1009.1
20260506021028 -17 0.0 0.0 0.00 0.00 0.00 10 1008.7
20260506020539 -17 0.0 0.0 0.00 0.00 0.00 10 1008.8
20260506020038 -17 0.0 0.0 0.00 0.00 0.00 10 1008.8
20260506015538 -17 0.0 0.0 0.00 0.00 0.00 10 1009.0
20260506015039 -17 0.0 0.0 0.00 0.00 0.00 10 1009.2
20260506014533 -17 0.0 0.0 0.00 0.00 0.00 10 1009.2
20260506014028 -17 0.0 0.0 0.00 0.00 0.00 10 1009.3
20260506013539 -17 0.0 0.0 0.00 0.00 0.00 10 1009.3
20260506013038 -17 0.0 0.0 0.00 0.00 0.00 10 1009.5
20260506012538 -17 0.0 0.0 0.00 0.00 0.00 10 1009.2
20260506012038 -17 0.0 0.0 0.00 0.00 0.00 10 1009.2
20260506011533 -17 0.0 0.0 0.00 0.00 0.00 10 1009.2
20260506011028 -17 0.0 0.0 0.00 0.00 0.00 10 1009.3
20260506010539 -17 0.0 0.0 0.00 0.00 0.00 10 1009.3
20260506010038 -17 0.0 0.0 0.00 0.00 0.00 10 1009.6
20260506005538 -17 0.0 0.0 0.00 0.00 0.00 10 1009.8
20260506005038 -17 0.0 0.0 0.00 0.00 0.00 10 1009.8
20260506004533 -17 0.0 0.0 0.00 0.00 0.00 10 1009.8
20260506004028 -17 0.0 0.0 0.00 0.00 0.00 10 1009.6
20260506003538 -17 0.0 0.0 0.00 0.00 0.00 10 1010.0